MILESOVKA Weather Reports


Display with metric or nautical units.
time (UTC)temp
F
wind
direction
speed
MPH
gust
MPH
rain 1hr
in
rain 24hr
in
rain mn
in
humidity
%
barometer
mb
20260506031746 48 220 22.0 0.0 0.00 0.00 0.00 99
20260506021745 48 240 20.0 0.0 0.00 0.00 0.00 99
20260506011846 48 240 18.0 0.0 0.00 0.00 0.00 99
20260506001744 50 250 14.0 0.0 0.00 0.00 0.00 93
20260505231745 50 270 12.0 0.0 0.00 0.00 0.00 93
20260505221745 48 260 36.0 0.0 0.00 0.00 0.00 99
20260505211801 48 260 45.0 0.0 0.00 0.00 0.00 99
20260505201800 55 40 16.0 0.0 0.00 0.00 0.00 93
20260505191817 55 40 16.0 26.0 0.00 0.00 0.00 93
20260505181802 57 20 24.0 0.0 0.00 0.00 0.00 87
20260505171745 57 10 24.0 0.0 0.00 0.00 0.00 87
20260505161845 61 20 18.0 0.0 0.00 0.00 0.00 82
20260505151744 64 10 18.0 29.0 0.00 0.00 0.00 72
20260505121744 68 30 9.0 0.0 0.00 0.00 0.00 60
20260505111745 68 30 7.0 0.0 0.00 0.00 0.00 60
20260505101745 64 30 9.0 0.0 0.00 0.00 0.00 63
20260505092606 63 10 9.0 0.0 0.00 0.00 0.00 67
20260505091744 63 10 9.0 0.0 0.00 0.00 0.00 67
20260505081745 61 20 9.0 0.0 0.00 0.00 0.00 67
20260505071745 57 20 7.0 0.0 0.00 0.00 0.00 76
20260505061745 59 80 2.0 0.0 0.00 0.00 0.00 62
20260505051745 57 110 2.0 0.0 0.00 0.00 0.00 67
20260505041744 55 20 9.0 0.0 0.00 0.00 0.00 71